This is the latest recevied weather packets stored in our database for station/object R6DH-11. If no packets are shown the sender has not sent any weather packets the latest 10 day(s).
| Time | Temp. | Humidity | Pressure | Rain* | Wind** | Luminosity | Snow |
|---|---|---|---|---|---|---|---|
| 1777752073 | 4.44° C | 75% | 1019.3 hPa | - | - | - | - |
| 1777751173 | 5° C | 75% | 1019.4 hPa | - | - | - | - |
| 1777750273 | 5° C | 74% | 1019.4 hPa | - | - | - | - |
| 1777749373 | 6.11° C | 73% | 1019.4 hPa | - | - | - | - |
| 1777748473 | 5.56° C | 72% | 1019.4 hPa | - | - | - | - |
| 1777747573 | 5.56° C | 72% | 1019.5 hPa | - | - | - | - |
| 1777746672 | 5.56° C | 72% | 1019.7 hPa | - | - | - | - |
| 1777745772 | 5° C | 72% | 1019.3 hPa | - | - | - | - |
| 1777744872 | 5.56° C | 73% | 1019.3 hPa | - | - | - | - |
| 1777743972 | 5.56° C | 71% | 1019.1 hPa | - | - | - | - |
| 1777743072 | 6.11° C | 70% | 1019.1 hPa | - | - | - | - |
| 1777742172 | 6.67° C | 69% | 1019.2 hPa | - | - | - | - |
| 1777741272 | 6.67° C | 69% | 1019.1 hPa | - | - | - | - |
| 1777740371 | 7.78° C | 65% | 1018.9 hPa | - | - | - | - |
| 1777739471 | 8.33° C | 63% | 1018.8 hPa | - | - | - | - |
| 1777738571 | 8.89° C | 57% | 1018.8 hPa | - | - | - | - |
| 1777736771 | 10.56° C | 52% | 1018.7 hPa | - | - | - | - |
| 1777735889 | 10.56° C | 49% | 1018.7 hPa | - | - | - | - |
| 1777734080 | 11.11° C | 52% | 1018.8 hPa | - | - | - | - |
| 1777733180 | 11.11° C | 49% | 1019 hPa | - | - | - | - |
| 1777732280 | 10.56° C | 47% | 1016.8 hPa | - | - | - | - |
| 1777731380 | 11.67° C | 46% | 1018.9 hPa | - | - | - | - |
| 1777730479 | 11.67° C | 47% | 1019.1 hPa | - | - | - | - |
| 1777729579 | 11.11° C | 48% | 1019 hPa | - | - | - | - |
| 1777728679 | 12.22° C | 44% | 1019 hPa | - | - | - | - |
* Rain since midnight (hover to see other rain measurements)
** Current wind speed in m/s (hover to see current wind gust speed)